[[{"header":{"parameterUnit":"m.s-1","parameterCategory":1,"la1":30.2991,"la2":30.254,"lo1":-89.0895,"lo2":-89.0444,"dy":0.0017,"dx":0.0017,"nx":28,"ny":28,"refTime":"2025-02-07T09:00:00:Z","depth":0,"parameterNumber":2,"parameterNumberName":"U-component_of_WINDS"},"data":[0,0,0,0,0,0,0,0,0,0,0,0,0,0,0,0,0,0,0,0,0,0,0,0,0,0,0,0,0,0,0,0,0,0,0,0,0,0,0,0,0,0,0,0,0,0,0,0,0,0,0,0,0,0,0,0,0,0,1.442,1.4421,0,1.4494,1.4495,1.4496,1.4486,1.4485,1.4484,1.4483,1.4561,1.4565,1.4568,0,0,0,0,0,0,0,0,0,0,0,0,0,1.4273,1.4276,1.442,1.4421,1.4422,1.4494,1.4495,1.4496,1.4486,1.4485,1.4483,1.4482,1.456,1.4564,1.4568,0,0,0,0,0,0,0,0,0,0,0,0,0,1.4341,1.4277,1.442,1.4426,1.4427,1.4494,1.4495,1.4497,1.4487,1.4485,1.4483,1.4481,1.4559,1.4564,1.4569,1.4636,0,0,1.4583,1.4586,0,0,0,0,0,0,0,0,1.4337,1.4346,1.4424,1.4426,1.4427,1.4479,1.4472,1.4543,1.4487,1.4464,1.4483,1.448,1.4536,1.4542,1.456,1.4639,1.4643,1.4584,1.4587,1.4589,1.459,0,0,0,0,0,0,0,1.4332,1.4343,1.445,1.4425,1.4427,1.4426,1.4433,1.4486,1.451,1.4466,1.4465,1.4474,1.4536,1.4556,1.4562,1.4644,1.4584,1.4588,1.4591,1.4593,1.4782,1.4784,0,0,0,0,0,0,1.4326,1.4339,1.4447,1.4452,1.4377,1.443,1.4438,1.4464,1.4509,1.4514,1.4476,1.4474,1.4548,1.4557,1.4565,1.4647,1.4589,1.4593,1.4596,1.478,1.4782,1.4784,0,0,0,0,0,0,1.4323,1.4336,1.4444,1.4396,1.4409,1.4434,1.4464,1.4467,1.4486,1.4516,1.4521,1.4491,1.4547,1.4558,1.4618,1.4649,1.4596,1.46,1.4777,1.478,1.4783,1.481,0,0,0,0,0,0,1.4319,1.4335,1.436,1.4396,1.4412,1.4495,1.4465,1.447,1.4494,1.4492,1.4532,1.4537,1.4547,1.4611,1.4623,1.4655,1.4604,1.4775,1.4779,1.4782,1.4806,1.4814,1.482,0,0,0,0,0,1.4313,1.4365,1.4361,1.4374,1.4443,1.4497,1.4506,1.4516,1.4497,1.4523,1.4542,1.4535,1.4644,1.4617,1.463,1.4664,1.4773,1.4777,1.4782,1.4803,1.4812,1.482,0,0,0,0,0,0,1.4332,1.4369,1.4366,1.443,1.446,1.4495,1.4528,1.4525,1.4562,1.4558,1.4569,1.4578,1.4639,1.4658,1.4627,1.4732,1.4706,1.4713,1.4717,1.4726,1.4732,1.4727,1.4608,0,0,0,0,0,1.4343,1.4383,1.4414,1.4468,1.4483,1.4503,1.4527,1.4531,1.4564,1.4577,1.46,1.4633,1.4674,1.4701,1.474,1.4809,1.4818,1.4839,1.4846,1.4851,1.4858,1.4896,1.4906,1.48,1.48,1.48,0,0,1.4368,1.4393,1.4418,1.4472,1.4496,1.4538,1.4514,1.4559,1.459,1.4584,1.4641,1.466,1.4697,1.4761,1.4791,1.4779,1.4889,1.4857,1.4861,1.4865,1.4902,1.4912,1.4921,1.4803,1.4803,1.4802,0,0,1.4433,1.4456,1.4504,1.4528,1.4564,1.4577,1.4589,1.4624,1.4636,1.4694,1.469,1.4728,1.4799,1.4825,1.4848,1.4924,1.4919,1.4936,1.4972,1.5009,1.5017,1.5024,1.5052,1.5062,1.4943,1.4943,1.4943,0,1.4459,1.4521,1.4529,1.4574,1.4599,1.4594,1.4643,1.4666,1.4714,1.4732,1.4717,1.4806,1.483,1.4901,1.492,1.4938,1.4952,1.4932,1.5015,1.5022,1.503,1.5056,1.5066,1.4945,1.4945,1.4944,1.4944,0,1.4551,1.4594,1.4628,1.4674,1.4702,1.4749,1.4765,1.4793,1.4795,1.481,1.4869,1.4898,1.4944,1.4961,1.4964,1.5033,1.5024,1.5012,1.4986,1.5041,1.5066,1.5076,1.4947,1.4947,1.4946,1.4946,0,0,1.4631,1.468,1.4692,1.4713,1.4753,1.4786,1.4834,1.4877,1.4901,1.4934,1.4975,1.5035,1.5024,1.505,1.5056,1.5088,1.5147,1.5072,1.5073,1.5085,1.5225,1.5234,1.5245,1.5144,1.5146,1.5147,1.5222,0,1.47,1.4782,1.4791,1.4865,1.4905,1.4901,1.4943,1.4972,1.4987,1.5024,1.5041,1.5083,1.5066,1.5081,1.5113,1.5133,1.5175,1.5128,1.5182,1.5184,1.5174,1.5258,1.5268,1.5336,1.5232,1.5233,1.5234,0,1.4792,1.4828,1.4905,1.494,1.4957,1.4993,1.5034,1.5069,1.5103,1.5112,1.5141,1.5142,1.5192,1.5164,1.5233,1.52,1.5223,1.5236,1.5239,1.5245,1.5213,1.5267,1.5359,1.5369,1.525,1.5249,1.5247,0,1.4843,1.491,1.4965,1.4983,1.5024,1.505,1.5069,1.5101,1.5126,1.5163,1.518,1.5221,1.5244,1.5277,1.529,1.5268,1.5359,1.5331,1.5368,1.5368,1.5388,1.5386,1.5485,1.5402,1.5402,1.5401,1.5401,0,1.492,1.4968,1.4988,1.5022,1.5076,1.5086,1.5139,1.5157,1.5185,1.5223,1.5223,1.5258,1.5274,1.5312,1.5323,1.5379,1.5389,1.5398,1.5401,1.5399,1.5397,1.5414,1.541,1.5404,1.5404,1.5403,1.5403,0,1.4986,1.5001,1.5061,1.5095,1.5105,1.5143,1.5173,1.5206,1.5221,1.5269,1.5281,1.5304,1.535,1.5366,1.5422,1.5429,1.5493,1.5492,1.5482,1.5483,1.5518,1.5515,1.5631,1.5647,1.5554,1.5554,1.5555,0,1.5034,1.507,1.5109,1.5134,1.5153,1.5194,1.522,1.5231,1.5259,1.53,1.5329,1.5373,1.541,1.5483,1.5505,1.5548,1.5547,1.5585,1.5554,1.555,1.5548,1.5546,1.555,1.5591,1.5592,1.5593,1.5594,0,1.5118,1.5124,1.5161,1.5202,1.5233,1.5265,1.5297,1.5318,1.5334,1.5365,1.5411,1.5439,1.5496,1.554,1.5584,1.5604,1.5602,1.5603,1.5614,1.5612,1.5605,1.561,1.5498,1.5601,1.56,1.5599,1.5599,1.5599,1.5177,1.5209,1.5241,1.5283,1.5308,1.5337,1.537,1.5389,1.5427,1.5473,1.5478,1.5528,1.5561,1.5619,1.5641,1.5681,1.5671,1.5686,1.569,1.5694,1.5697,1.5599,1.5689,1.5689,1.5689,1.5688,1.5688,0,1.5261,1.5281,1.532,1.5364,1.5397,1.5391,1.5426,1.5454,1.5497,1.5528,1.5564,1.5617,1.5661,1.5687,1.573,1.5757,1.5757,1.5768,1.5767,1.5772,1.5703,1.569,1.5768,1.5767,1.5767,1.5767,1.5767,1.5767,1.5309,1.5363,1.5373,1.5441,1.5461,1.5509,1.5529,1.5557,1.5582,1.5641,1.5677,1.5693,1.5722,1.5768,1.5808,1.5814,1.5831,1.5843,1.5849,1.5784,1.5776,1.5769,1.5756,1.5846,1.5846,1.5914,1.5914,1.5915]},{"header":{"parameterUnit":"m.s-1","parameterCategory":1,"la1":30.2991,"la2":30.254,"lo1":-89.0895,"lo2":-89.0444,"dy":0.0017,"dx":0.0017,"nx":28,"ny":28,"refTime":"2025-02-07T09:00:00:Z","depth":0,"parameterNumber":3,"parameterNumberName":"V-component_of_WINDS"},"data":[0,0,0,0,0,0,0,0,0,0,0,0,0,0,0,0,0,0,0,0,0,0,0,0,0,0,0,0,0,0,0,0,0,0,0,0,0,0,0,0,0,0,0,0,0,0,0,0,0,0,0,0,0,0,0,0,0,0,3.0061,3.0062,0,3.0171,3.0172,3.0174,3.0193,3.0192,3.0191,3.019,3.0299,3.0302,3.0306,0,0,0,0,0,0,0,0,0,0,0,0,0,2.9862,2.9866,3.0061,3.0062,3.0064,3.0171,3.0172,3.0174,3.0193,3.0192,3.0191,3.019,3.0297,3.0302,3.0306,0,0,0,0,0,0,0,0,0,0,0,0,0,2.9958,2.9867,3.006,3.0086,3.009,3.0171,3.0172,3.0174,3.0193,3.0192,3.0191,3.0189,3.0296,3.0301,3.0307,3.0369,0,0,3.0324,3.0327,0,0,0,0,0,0,0,0,2.9952,2.9965,3.0081,3.0085,3.0089,3.0167,3.0142,3.0239,3.0194,3.0154,3.019,3.0189,3.0256,3.0265,3.0288,3.0374,3.0378,3.0325,3.0328,3.033,3.0332,0,0,0,0,0,0,0,2.9946,2.9961,3.0104,3.0083,3.0087,3.0091,3.0103,3.0161,3.0211,3.0157,3.0159,3.0172,3.0257,3.0283,3.0291,3.038,3.0324,3.0329,3.0333,3.0335,3.0521,3.0523,0,0,0,0,0,0,2.9935,2.9955,3.0101,3.0108,3.0016,3.0095,3.0109,3.0143,3.021,3.0219,3.0173,3.0172,3.0274,3.0284,3.0295,3.0371,3.033,3.0336,3.0339,3.052,3.0521,3.0523,0,0,0,0,0,0,2.9931,2.9948,3.0096,3.0032,3.0051,3.01,3.0138,3.0146,3.0171,3.0222,3.0231,3.019,3.0273,3.0287,3.035,3.0375,3.0338,3.0343,3.0518,3.052,3.0522,3.0525,0,0,0,0,0,0,2.9925,2.9946,2.9972,3.0032,3.0054,3.0152,3.014,3.0149,3.0181,3.0182,3.024,3.0249,3.0273,3.0342,3.0356,3.0382,3.0348,3.0516,3.0519,3.0522,3.0523,3.0527,3.0531,0,0,0,0,0,2.9918,2.9967,2.9973,2.999,3.0087,3.0153,3.0166,3.0194,3.0183,3.0208,3.0241,3.0247,3.037,3.0348,3.0364,3.0393,3.0514,3.0518,3.0521,3.0521,3.0526,3.0531,0,0,0,0,0,0,2.9906,2.9975,2.9983,3.0053,3.0097,3.0156,3.0189,3.0199,3.0245,3.0244,3.0275,3.0288,3.035,3.0378,3.0352,3.0455,3.0441,3.0448,3.0436,3.0441,3.0445,3.0437,3.0352,0,0,0,0,0,2.9912,2.9962,3.0019,3.0075,3.0097,3.0139,3.0169,3.0187,3.0233,3.0252,3.0289,3.0333,3.0381,3.0412,3.046,3.0527,3.0539,3.0554,3.0558,3.0561,3.0566,3.0603,3.061,3.0535,3.0535,3.0535,0,0,2.9924,2.9968,2.9997,3.0074,3.0111,3.016,3.0155,3.0207,3.0243,3.0259,3.0322,3.0351,3.0401,3.0467,3.0497,3.0492,3.059,3.0565,3.0567,3.0572,3.0608,3.0615,3.0621,3.0537,3.0537,3.0536,0,0,2.9972,3.001,3.0062,3.0099,3.0154,3.0182,3.0194,3.0252,3.0272,3.0336,3.0349,3.0391,3.0475,3.051,3.0539,3.0599,3.0606,3.0614,3.0634,3.067,3.0676,3.0681,3.0703,3.071,3.0619,3.0619,3.0619,0,2.998,3.0056,3.0087,3.0139,3.0172,3.019,3.0241,3.0275,3.0342,3.0364,3.0357,3.0461,3.0496,3.057,3.0585,3.0608,3.0622,3.0607,3.0673,3.0679,3.0684,3.0705,3.0713,3.062,3.062,3.0619,3.0619,0,3.0063,3.0115,3.015,3.0217,3.0253,3.0304,3.0341,3.0374,3.0389,3.0417,3.0481,3.0523,3.058,3.0598,3.0613,3.0674,3.0669,3.0667,3.0653,3.0691,3.0711,3.0719,3.062,3.062,3.062,3.062,0,0,3.0107,3.019,3.0202,3.0232,3.0295,3.0335,3.0387,3.0443,3.0471,3.0516,3.056,3.0629,3.0628,3.0661,3.0679,3.071,3.0754,3.0704,3.0706,3.0712,3.0824,3.0826,3.0834,3.0759,3.0761,3.0762,3.082,0,3.0162,3.0257,3.0285,3.0364,3.0412,3.043,3.0474,3.0516,3.0543,3.0587,3.0616,3.0665,3.066,3.0679,3.0711,3.0742,3.0777,3.0739,3.0799,3.08,3.0786,3.0845,3.0847,3.0899,3.0828,3.0829,3.083,0,3.0239,3.0288,3.0372,3.0428,3.045,3.049,3.0544,3.0585,3.0633,3.065,3.0687,3.0702,3.0755,3.0738,3.081,3.0783,3.0809,3.0828,3.0831,3.0838,3.0818,3.0853,3.0917,3.0925,3.0843,3.0842,3.0841,0,3.0263,3.0349,3.0411,3.0436,3.0503,3.0531,3.056,3.0606,3.0638,3.0685,3.0706,3.0757,3.0785,3.0823,3.0851,3.0836,3.0921,3.0906,3.0936,3.0935,3.0953,3.0952,3.1022,3.097,3.0969,3.0969,3.0969,0,3.0322,3.0372,3.0423,3.046,3.0517,3.0549,3.0603,3.0633,3.0674,3.0716,3.0733,3.0773,3.0807,3.0851,3.0873,3.0929,3.0941,3.0956,3.0961,3.0955,3.0953,3.0972,3.0969,3.0971,3.0971,3.097,3.097,0,3.0358,3.0394,3.0462,3.052,3.0536,3.0575,3.0624,3.0661,3.0688,3.0742,3.0756,3.0798,3.085,3.0882,3.0947,3.0962,3.1024,3.1028,3.1009,3.1011,3.1039,3.1036,3.1124,3.1137,3.1076,3.1076,3.1077,0,3.0394,3.0433,3.0496,3.0527,3.0556,3.0605,3.0639,3.067,3.0704,3.0761,3.079,3.0843,3.0888,3.0969,3.1005,3.1055,3.106,3.1087,3.1067,3.1059,3.106,3.1058,3.1061,3.1091,3.1091,3.1092,3.1092,0,3.0453,3.0468,3.0517,3.0571,3.061,3.0654,3.0698,3.0721,3.076,3.0797,3.0851,3.0885,3.0953,3.1005,3.1058,3.1085,3.1095,3.1098,3.1107,3.1101,3.1089,3.1096,3.1018,3.1096,3.1095,3.1095,3.1095,3.1095,3.049,3.0526,3.0576,3.0629,3.0665,3.0705,3.0743,3.0775,3.0821,3.088,3.0895,3.0952,3.0997,3.1069,3.1098,3.1141,3.1137,3.1151,3.1154,3.1157,3.1158,3.1081,3.1151,3.1151,3.1151,3.1151,3.1151,0,3.055,3.0583,3.0631,3.0692,3.0734,3.0741,3.0789,3.0822,3.0873,3.0915,3.0959,3.102,3.1071,3.111,3.1162,3.1189,3.1195,3.1201,3.12,3.1206,3.1159,3.1146,3.1196,3.1196,3.1196,3.1196,3.1196,3.1196,3.0586,3.0647,3.0669,3.0748,3.078,3.0837,3.0864,3.09,3.0935,3.1003,3.1046,3.1072,3.1113,3.1168,3.1214,3.1224,3.1242,3.1248,3.1259,3.1214,3.1209,3.1205,3.1192,3.1252,3.1252,3.1303,3.1303,3.1303]}]]